Flag for U.S.A. Weather past 2 weeks in Huntington Beach, California, U.S.A.

Now
83 °F

Clear.


Feels Like: 84 °F
Forecast: 74 / 86 °F
Wind: 3 mph from Southwest

Location: John Wayne Airport-Orange County Airport

Current Time: Sep 17, 2014 at 1:06:57 AM

Latest Report: Sep 16, 2014 at 11:53 PM


Visibility: 10 mi

Pressure: 29.72 "Hg

Humidity: 51%

Dew point: 63 °F

Location of Huntington BeachLocation

Historic Weather in Huntington Beach — Graph

°F

Huntington Beach temperature yesterday

Maximum temperature yesterday: 99 °F (at 4:53 PM)
Minimum temperature yesterday: 77 °F (at 5:53 AM)
Average temperature yesterday: 88 °F

Past Weeks' High & Low Weather Summary

 TemperatureHumidityPressure
High99 °F (Sep 16, 4:53 PM)81% (Sep 12, 4:53 AM)29.92 "Hg (Sep 12, 4:53 AM)
Low69 °F (Sep 10, 3:53 AM)24% (Sep 16, 3:53 PM)29.67 "Hg (Sep 14, 4:53 PM)
Average79 °F59%29.80 "Hg
* Reported Sep 1 11:53 PM — Sep 16 11:53 PM, Huntington Beach, Weather by CustomWeather, © 2014

Note: Actual official high and low records may vary slightly from our data, if they occured in-between our weather recording intervals... More about our weather records

Advertising

Huntington Beach weather history for previous 24 hours

 ConditionsComfort  
Time TempWeatherWind HumidityBarometerVisibility
11:53 PM
Sep 16
83 °FClear.3 mph51%29.72 "Hg10 mi
10:53 PM88 °FPassing clouds.No wind31%29.72 "Hg10 mi
9:53 PM90 °FPassing clouds.No wind27%29.72 "Hg10 mi
8:53 PM93 °FClear.No wind26%29.71 "Hg10 mi
7:53 PM93 °FSunny.No wind31%29.70 "Hg10 mi
6:53 PM95 °FScattered clouds.6 mph30%29.68 "Hg10 mi
5:53 PM98 °FScattered clouds.7 mph25%29.67 "Hg10 mi
4:53 PM99 °FScattered clouds.7 mph26%29.68 "Hg10 mi
3:53 PM98 °FScattered clouds.6 mph24%29.70 "Hg10 mi
2:53 PM96 °FScattered clouds.8 mph28%29.69 "Hg10 mi
1:53 PM95 °FPassing clouds.9 mph34%29.70 "Hg10 mi
12:53 PM97 °FPassing clouds.8 mph30%29.72 "Hg10 mi
11:53 AM92 °FPassing clouds.7 mph37%29.74 "Hg10 mi
10:53 AM92 °FPassing clouds.8 mph36%29.76 "Hg10 mi
9:53 AM87 °FSunny.No wind45%29.76 "Hg10 mi
8:53 AM82 °FSunny.3 mph55%29.77 "Hg10 mi
7:53 AM79 °FSunny.No wind62%29.76 "Hg10 mi
6:53 AM77 °FClear.No wind66%29.75 "Hg10 mi
5:53 AM77 °FClear.No wind66%29.74 "Hg10 mi
4:53 AM78 °FClear.No wind64%29.74 "Hg10 mi
3:53 AM79 °FClear.No wind62%29.75 "Hg10 mi
2:53 AM80 °FClear.No wind58%29.76 "Hg10 mi
1:53 AM80 °FClear.No wind56%29.77 "Hg10 mi
Weather by CustomWeather, © 2014

See weather overviewHow to use our weather pages